Location: Unspecified
(0.0000°N, 0.0000°E)
Time: 13:33:40
(UTC+00:00)

Transit 2A - Pass Details

Date: 14 December 2021
Orbit: 591 x 967 km, 66.7° (Epoch: 21 January)

Event Time Altitude Azimuth Distance (km) Brightness Sun altitude
Rises 19:34:01 0° 191° (S) 2,999 9.6 -22.6°
Reaches altitude 10° 19:36:16 10° 186° (S) 2,134 8.7 -23.2°
Enters shadow 19:40:41 53° 124° (ESE) 903 6.1 -24.1°
